Location: Lesignano de� Bagni
(44.6500°N, 10.3000°E)
Time: 20:20:21
(UTC+00:00)

Cosmos 1515 - Pass Details

Date: 03 March 2021
Orbit: 504 x 516 km, 82.5° (Epoch: 17 April)

Event Time Altitude Azimuth Distance (km) Brightness Sun altitude
Rises 17:54:39 0° 353° (N) 2,645 7.4 -8.9°
Reaches altitude 10° 17:56:49 10° 356° (N) 1,752 6.4 -9.2°
Maximum altitude 18:00:38 70° 80° (E) 551 3.6 -9.9°
Drops below altitude 10° 18:04:26 10° 165° (SSE) 1,731 6.2 -10.6°
Sets 18:06:33 0° 168° (SSE) 2,610 7.1 -11.0°
